Time,TemperatureF,DewpointF,PressureIn,WindDirection,WindDirectionDegrees,WindSpeedMPH,WindSpeedGustMPH,Humidity,HourlyPrecipIn,Conditions,Clouds,dailyrainin,SoftwareType,DateUTC
2017-10-23 00:03:00,49.6,48.6,30.48,SE,127,0.0,2.0,96,0.00,,,0.04,meteohub,2017-10-23 07:03:00,
2017-10-23 00:08:00,49.5,48.4,30.48,SE,127,0.0,2.0,96,0.00,,,0.00,meteohub,2017-10-23 07:08:00,
2017-10-23 00:13:00,49.5,48.4,30.48,SE,127,0.0,2.0,96,0.00,,,0.00,meteohub,2017-10-23 07:13:00,
2017-10-23 00:18:00,49.5,48.6,30.48,SE,127,0.0,2.0,97,0.00,,,0.00,meteohub,2017-10-23 07:18:00,
2017-10-23 00:23:00,49.5,48.4,30.49,SE,127,0.0,2.0,96,0.00,,,0.00,meteohub,2017-10-23 07:23:00,
2017-10-23 00:28:00,49.5,48.4,30.49,SE,127,0.0,2.0,96,0.00,,,0.00,meteohub,2017-10-23 07:28:00,
2017-10-23 00:33:00,49.5,48.6,30.49,SE,127,1.0,3.0,97,0.00,,,0.00,meteohub,2017-10-23 07:33:00,
2017-10-23 00:38:00,49.5,48.6,30.49,SE,127,0.0,3.0,97,0.00,,,0.00,meteohub,2017-10-23 07:38:00,
2017-10-23 00:43:00,49.8,48.9,30.50,SE,127,0.0,2.0,97,0.00,,,0.00,meteohub,2017-10-23 07:43:00,
2017-10-23 00:48:00,49.8,48.9,30.50,SE,127,0.0,2.0,97,0.00,,,0.00,meteohub,2017-10-23 07:48:00,
2017-10-23 00:53:00,49.8,48.9,30.50,SE,127,0.0,2.0,97,0.00,,,0.00,meteohub,2017-10-23 07:53:00,
2017-10-23 00:58:00,49.6,48.7,30.50,SE,127,0.0,2.0,97,0.00,,,0.00,meteohub,2017-10-23 07:58:00,
2017-10-23 01:03:00,49.6,48.7,30.50,SE,127,1.0,2.0,97,0.00,,,0.00,meteohub,2017-10-23 08:03:00,
2017-10-23 01:08:00,49.6,48.7,30.50,SE,127,3.0,3.0,97,0.00,,,0.00,meteohub,2017-10-23 08:08:00,
2017-10-23 01:13:00,49.5,48.6,30.50,SE,127,1.0,2.0,97,0.00,,,0.00,meteohub,2017-10-23 08:13:00,
2017-10-23 01:18:00,49.5,48.6,30.50,SE,134,1.0,3.0,97,0.00,,,0.00,meteohub,2017-10-23 08:18:00,
2017-10-23 01:23:00,49.5,48.6,30.51,SE,134,0.0,3.0,97,0.00,,,0.00,meteohub,2017-10-23 08:23:00,
2017-10-23 01:28:00,49.6,48.7,30.50,SE,134,0.0,3.0,97,0.00,,,0.00,meteohub,2017-10-23 08:28:00,
2017-10-23 01:33:00,49.6,48.7,30.51,SE,134,0.0,3.0,97,0.00,,,0.00,meteohub,2017-10-23 08:33:00,
2017-10-23 01:38:00,49.6,48.7,30.51,SE,133,2.0,2.0,97,0.00,,,0.00,meteohub,2017-10-23 08:38:00,
2017-10-23 01:43:00,50.2,49.3,30.50,SSE,149,2.0,3.0,97,0.00,,,0.00,meteohub,2017-10-23 08:43:00,
2017-10-23 01:48:00,50.9,50.0,30.51,SE,134,2.0,7.0,97,0.00,,,0.00,meteohub,2017-10-23 08:48:00,
2017-10-23 01:53:00,51.4,50.5,30.51,ESE,110,4.0,7.0,97,0.00,,,0.00,meteohub,2017-10-23 08:53:00,
2017-10-23 01:59:00,51.6,50.7,30.51,SE,134,3.0,7.0,97,0.00,,,0.00,meteohub,2017-10-23 08:59:00,
2017-10-23 02:04:00,51.6,50.7,30.51,SE,124,3.0,7.0,97,0.00,,,0.00,meteohub,2017-10-23 09:04:00,
2017-10-23 02:09:00,51.6,50.7,30.52,SSE,148,3.0,7.0,97,0.00,,,0.00,meteohub,2017-10-23 09:09:00,
2017-10-23 02:14:00,51.6,50.7,30.52,SE,133,1.0,7.0,97,0.00,,,0.00,meteohub,2017-10-23 09:14:00,
2017-10-23 02:19:00,51.6,50.7,30.51,East,101,4.0,7.0,97,0.00,,,0.00,meteohub,2017-10-23 09:19:00,
2017-10-23 02:24:00,51.6,50.7,30.52,SSE,159,2.0,7.0,97,0.00,,,0.00,meteohub,2017-10-23 09:24:00,
2017-10-23 02:29:00,51.6,50.7,30.52,SE,134,1.0,7.0,97,0.00,,,0.00,meteohub,2017-10-23 09:29:00,
2017-10-23 02:39:00,51.8,50.9,30.52,SE,130,3.0,7.0,97,0.00,,,0.00,meteohub,2017-10-23 09:39:00,
2017-10-23 02:44:00,52.0,51.1,30.52,SE,137,4.0,5.0,97,0.00,,,0.00,meteohub,2017-10-23 09:44:00,
2017-10-23 02:49:00,52.0,51.1,30.54,SE,144,2.0,8.0,97,0.00,,,0.00,meteohub,2017-10-23 09:49:00,
2017-10-23 02:54:00,52.0,51.1,30.55,SE,146,0.0,8.0,97,0.00,,,0.00,meteohub,2017-10-23 09:54:00,
2017-10-23 02:59:00,52.2,51.3,30.54,ESE,111,2.0,8.0,97,0.00,,,0.00,meteohub,2017-10-23 09:59:00,
2017-10-23 03:04:00,52.2,51.3,30.55,SE,140,2.0,5.0,97,0.00,,,0.00,meteohub,2017-10-23 10:04:00,
2017-10-23 03:09:00,52.2,51.3,30.54,SE,140,3.0,4.0,97,0.00,,,0.00,meteohub,2017-10-23 10:09:00,
2017-10-23 03:14:00,52.2,51.3,30.54,ESE,111,3.0,7.0,97,0.00,,,0.00,meteohub,2017-10-23 10:14:00,
2017-10-23 03:19:00,52.2,51.3,30.54,ESE,112,6.0,7.0,97,0.00,,,0.00,meteohub,2017-10-23 10:19:00,
2017-10-23 03:24:00,52.2,51.6,30.54,East,94,3.0,7.0,98,0.00,,,0.00,meteohub,2017-10-23 10:24:00,
2017-10-23 03:29:00,52.2,51.6,30.54,East,88,3.0,7.0,98,0.00,,,0.00,meteohub,2017-10-23 10:29:00,
2017-10-23 03:34:00,52.2,51.3,30.54,East,94,2.0,8.0,97,0.00,,,0.00,meteohub,2017-10-23 10:34:00,
2017-10-23 03:39:00,52.2,51.3,30.54,East,101,3.0,8.0,97,0.00,,,0.00,meteohub,2017-10-23 10:39:00,
2017-10-23 03:44:00,52.0,51.1,30.54,East,101,6.0,8.0,97,0.00,,,0.00,meteohub,2017-10-23 10:44:00,
2017-10-23 03:49:00,52.0,51.1,30.54,East,94,1.0,7.0,97,0.00,,,0.00,meteohub,2017-10-23 10:49:00,
2017-10-23 03:54:00,52.0,51.1,30.54,NE,43,2.0,7.0,97,0.00,,,0.00,meteohub,2017-10-23 10:54:00,
2017-10-23 03:59:00,51.6,50.7,30.54,ENE,76,3.0,6.0,97,0.00,,,0.00,meteohub,2017-10-23 10:59:00,
2017-10-23 04:04:00,51.4,50.5,30.54,NE,36,5.0,7.0,97,0.00,,,0.00,meteohub,2017-10-23 11:04:00,
2017-10-23 04:09:00,51.4,50.5,30.54,ENE,74,4.0,7.0,97,0.00,,,0.00,meteohub,2017-10-23 11:09:00,
2017-10-23 04:14:00,51.3,50.4,30.54,NE,55,5.0,8.0,97,0.00,,,0.00,meteohub,2017-10-23 11:14:00,
2017-10-23 04:19:00,50.9,50.0,30.55,East,82,4.0,9.0,97,0.00,,,0.00,meteohub,2017-10-23 11:19:00,
2017-10-23 04:24:00,50.7,49.8,30.54,ENE,78,5.0,9.0,97,0.00,,,0.00,meteohub,2017-10-23 11:24:00,
2017-10-23 04:29:00,50.5,49.6,30.54,ENE,73,2.0,9.0,97,0.00,,,0.00,meteohub,2017-10-23 11:29:00,
2017-10-23 04:34:00,50.5,49.6,30.54,East,90,3.0,8.0,97,0.00,,,0.00,meteohub,2017-10-23 11:34:00,
2017-10-23 04:39:00,50.5,50.0,30.54,East,93,4.0,8.0,98,0.00,,,0.00,meteohub,2017-10-23 11:39:00,
2017-10-23 04:44:00,50.5,50.0,30.54,ESE,115,4.0,8.0,98,0.00,,,0.00,meteohub,2017-10-23 11:44:00,
2017-10-23 04:50:00,50.5,50.0,30.54,ESE,107,6.0,8.0,98,0.00,,,0.00,meteohub,2017-10-23 11:50:00,
2017-10-23 04:55:00,50.7,50.2,30.54,East,84,3.0,8.0,98,0.00,,,0.00,meteohub,2017-10-23 11:55:00,
2017-10-23 05:00:00,50.7,50.2,30.54,ENE,58,2.0,9.0,98,0.00,,,0.00,meteohub,2017-10-23 12:00:00,
2017-10-23 05:05:00,50.7,50.2,30.55,NE,46,4.0,9.0,98,0.00,,,0.00,meteohub,2017-10-23 12:05:00,
2017-10-23 05:10:00,50.7,50.2,30.55,East,84,2.0,9.0,98,0.00,,,0.00,meteohub,2017-10-23 12:10:00,
2017-10-23 05:15:00,50.7,50.2,30.55,East,92,6.0,9.0,98,0.00,,,0.00,meteohub,2017-10-23 12:15:00,
2017-10-23 05:20:00,50.7,50.2,30.56,NE,49,2.0,8.0,98,0.00,,,0.00,meteohub,2017-10-23 12:20:00,
2017-10-23 05:25:00,50.7,50.2,30.56,East,99,2.0,8.0,98,0.00,,,0.00,meteohub,2017-10-23 12:25:00,
2017-10-23 05:30:00,50.9,50.4,30.56,ENE,69,3.0,8.0,98,0.00,,,0.00,meteohub,2017-10-23 12:30:00,
2017-10-23 05:35:00,50.9,50.4,30.56,ENE,57,3.0,8.0,98,0.00,,,0.00,meteohub,2017-10-23 12:35:00,
2017-10-23 05:40:00,51.1,50.5,30.56,East,82,3.0,8.0,98,0.00,,,0.00,meteohub,2017-10-23 12:40:00,
2017-10-23 05:45:00,51.1,50.5,30.56,ENE,61,5.0,7.0,98,0.00,,,0.00,meteohub,2017-10-23 12:45:00,
2017-10-23 05:55:00,51.3,50.7,30.56,East,86,2.0,7.0,98,0.00,,,0.00,meteohub,2017-10-23 12:55:00,
2017-10-23 06:00:00,51.3,50.7,30.56,East,93,2.0,7.0,98,0.00,,,0.00,meteohub,2017-10-23 13:00:00,
2017-10-23 06:05:00,51.3,50.7,30.56,ENE,76,2.0,7.0,98,0.00,,,0.00,meteohub,2017-10-23 13:05:00,
2017-10-23 06:10:00,51.3,50.7,30.56,ENE,74,3.0,6.0,98,0.00,,,0.00,meteohub,2017-10-23 13:10:00,
2017-10-23 06:15:00,51.1,50.5,30.56,ESE,115,2.0,6.0,98,0.00,,,0.00,meteohub,2017-10-23 13:15:00,
2017-10-23 06:20:00,51.1,50.5,30.56,East,93,2.0,6.0,98,0.00,,,0.00,meteohub,2017-10-23 13:20:00,
2017-10-23 06:25:00,51.1,50.5,30.56,ESE,108,4.0,6.0,98,0.00,,,0.00,meteohub,2017-10-23 13:25:00,
2017-10-23 06:30:00,51.1,50.5,30.56,East,88,2.0,7.0,98,0.00,,,0.00,meteohub,2017-10-23 13:30:00,
2017-10-23 06:35:00,51.1,50.5,30.56,East,83,3.0,7.0,98,0.00,,,0.00,meteohub,2017-10-23 13:35:00,
2017-10-23 06:40:00,51.1,50.5,30.56,East,88,3.0,7.0,98,0.00,,,0.00,meteohub,2017-10-23 13:40:00,
2017-10-23 06:45:00,51.1,50.5,30.56,East,88,5.0,6.0,98,0.00,,,0.00,meteohub,2017-10-23 13:45:00,
2017-10-23 06:50:00,51.1,50.5,30.56,East,82,3.0,6.0,98,0.00,,,0.00,meteohub,2017-10-23 13:50:00,
2017-10-23 06:55:00,51.1,50.5,30.57,East,89,2.0,8.0,98,0.00,,,0.00,meteohub,2017-10-23 13:55:00,
2017-10-23 07:00:00,51.1,50.5,30.57,East,88,3.0,8.0,98,0.00,,,0.00,meteohub,2017-10-23 14:00:00,
2017-10-23 07:05:00,50.9,50.4,30.58,NE,36,4.0,8.0,98,0.00,,,0.00,meteohub,2017-10-23 14:05:00,
2017-10-23 07:15:00,50.9,50.4,30.58,East,82,7.0,7.0,98,0.00,,,0.00,meteohub,2017-10-23 14:15:00,
2017-10-23 07:20:00,50.7,50.2,30.57,East,84,4.0,7.0,98,0.00,,,0.00,meteohub,2017-10-23 14:20:00,
2017-10-23 07:25:00,50.7,50.2,30.57,East,89,5.0,8.0,98,0.00,,,0.00,meteohub,2017-10-23 14:25:00,
2017-10-23 07:30:00,50.5,50.0,30.58,East,93,3.0,8.0,98,0.00,,,0.00,meteohub,2017-10-23 14:30:00,
2017-10-23 07:35:00,50.5,50.0,30.58,ESE,107,4.0,8.0,98,0.00,,,0.00,meteohub,2017-10-23 14:35:00,
2017-10-23 07:40:00,50.4,49.8,30.58,ENE,78,5.0,7.0,98,0.00,,,0.00,meteohub,2017-10-23 14:40:00,
2017-10-23 07:46:00,50.4,49.8,30.58,East,96,4.0,8.0,98,0.00,,,0.00,meteohub,2017-10-23 14:46:00,
2017-10-23 07:51:00,50.4,49.8,30.58,ESE,107,7.0,8.0,98,0.00,,,0.00,meteohub,2017-10-23 14:51:00,
2017-10-23 07:56:00,50.2,49.6,30.58,ESE,120,4.0,8.0,98,0.00,,,0.00,meteohub,2017-10-23 14:56:00,
2017-10-23 08:01:00,50.4,49.8,30.58,ENE,78,3.0,8.0,98,0.00,,,0.00,meteohub,2017-10-23 15:01:00,
2017-10-23 08:06:00,50.4,49.8,30.58,East,100,2.0,7.0,98,0.00,,,0.00,meteohub,2017-10-23 15:06:00,
2017-10-23 08:11:00,50.4,49.8,30.58,ESE,107,2.0,7.0,98,0.00,,,0.00,meteohub,2017-10-23 15:11:00,
2017-10-23 08:16:00,50.4,49.8,30.58,ESE,111,4.0,7.0,98,0.00,,,0.00,meteohub,2017-10-23 15:16:00,
2017-10-23 08:21:00,50.4,49.8,30.58,ESE,109,6.0,6.0,98,0.00,,,0.00,meteohub,2017-10-23 15:21:00,
2017-10-23 08:26:00,50.4,49.8,30.58,SE,126,3.0,7.0,98,0.00,,,0.00,meteohub,2017-10-23 15:26:00,
2017-10-23 08:31:00,50.4,49.8,30.58,SE,133,3.0,7.0,98,0.00,,,0.00,meteohub,2017-10-23 15:31:00,
2017-10-23 08:36:00,50.4,49.8,30.58,ESE,121,2.0,7.0,98,0.00,,,0.00,meteohub,2017-10-23 15:36:00,
2017-10-23 08:41:00,50.4,49.8,30.58,ESE,121,3.0,7.0,98,0.00,,,0.00,meteohub,2017-10-23 15:41:00,
2017-10-23 08:46:00,50.4,49.8,30.58,ESE,115,3.0,7.0,98,0.00,,,0.00,meteohub,2017-10-23 15:46:00,
2017-10-23 08:51:00,50.4,49.8,30.59,East,100,4.0,7.0,98,0.00,,,0.00,meteohub,2017-10-23 15:51:00,
2017-10-23 08:56:00,50.4,49.8,30.59,ESE,114,4.0,7.0,98,0.00,,,0.00,meteohub,2017-10-23 15:56:00,
2017-10-23 09:01:00,50.4,49.8,30.59,ESE,108,6.0,7.0,98,0.00,,,0.00,meteohub,2017-10-23 16:01:00,
2017-10-23 09:06:00,50.2,49.6,30.59,ESE,106,3.0,8.0,98,0.00,,,0.00,meteohub,2017-10-23 16:06:00,
2017-10-23 09:11:00,50.2,49.6,30.59,ESE,111,3.0,8.0,98,0.00,,,0.00,meteohub,2017-10-23 16:11:00,
2017-10-23 09:16:00,50.4,49.8,30.59,East,91,3.0,8.0,98,0.00,,,0.00,meteohub,2017-10-23 16:16:00,
2017-10-23 09:21:00,50.4,49.8,30.60,East,91,2.0,7.0,98,0.00,,,0.00,meteohub,2017-10-23 16:21:00,
2017-10-23 09:26:00,50.5,50.0,30.60,ESE,109,2.0,7.0,98,0.00,,,0.00,meteohub,2017-10-23 16:26:00,
2017-10-23 09:31:00,50.7,50.2,30.60,East,96,3.0,7.0,98,0.00,,,0.00,meteohub,2017-10-23 16:31:00,
2017-10-23 09:36:00,51.1,50.5,30.60,East,92,3.0,7.0,98,0.00,,,0.00,meteohub,2017-10-23 16:36:00,
2017-10-23 09:41:00,51.1,50.5,30.60,East,94,3.0,7.0,98,0.00,,,0.00,meteohub,2017-10-23 16:41:00,
2017-10-23 09:46:00,51.3,50.7,30.60,East,93,2.0,7.0,98,0.00,,,0.00,meteohub,2017-10-23 16:46:00,
2017-10-23 09:51:00,51.4,50.9,30.61,East,94,3.0,7.0,98,0.00,,,0.00,meteohub,2017-10-23 16:51:00,
2017-10-23 09:56:00,51.6,51.1,30.61,East,88,4.0,7.0,98,0.00,,,0.00,meteohub,2017-10-23 16:56:00,
2017-10-23 10:01:00,52.0,51.4,30.61,East,86,4.0,7.0,98,0.00,,,0.00,meteohub,2017-10-23 17:01:00,
2017-10-23 10:06:00,52.3,51.8,30.61,ENE,66,4.0,8.0,98,0.00,,,0.00,meteohub,2017-10-23 17:06:00,
2017-10-23 10:11:00,52.5,52.0,30.61,ENE,68,3.0,8.0,98,0.00,,,0.00,meteohub,2017-10-23 17:11:00,
2017-10-23 10:16:00,52.5,52.0,30.61,East,85,4.0,8.0,98,0.00,,,0.00,meteohub,2017-10-23 17:16:00,
2017-10-23 10:21:00,52.9,52.3,30.61,ENE,61,2.0,9.0,98,0.00,,,0.00,meteohub,2017-10-23 17:21:00,
2017-10-23 10:26:00,53.1,52.5,30.61,ENE,57,3.0,9.0,98,0.00,,,0.00,meteohub,2017-10-23 17:26:00,
2017-10-23 10:31:00,53.6,53.1,30.61,NE,48,6.0,9.0,98,0.00,,,0.00,meteohub,2017-10-23 17:31:00,
2017-10-23 10:37:00,53.8,53.2,30.61,NE,56,4.0,9.0,98,0.00,,,0.00,meteohub,2017-10-23 17:37:00,
2017-10-23 10:42:00,54.0,53.4,30.61,ENE,73,3.0,8.0,98,0.00,,,0.00,meteohub,2017-10-23 17:42:00,
2017-10-23 10:47:00,54.0,53.4,30.61,ENE,63,2.0,8.0,98,0.00,,,0.00,meteohub,2017-10-23 17:47:00,
2017-10-23 10:52:00,54.1,53.6,30.61,East,84,7.0,7.0,98,0.00,,,0.00,meteohub,2017-10-23 17:52:00,
2017-10-23 10:57:00,54.1,53.6,30.61,ENE,78,3.0,7.0,98,0.00,,,0.00,meteohub,2017-10-23 17:57:00,
2017-10-23 11:02:00,54.3,53.4,30.61,NE,51,2.0,7.0,97,0.00,,,0.00,meteohub,2017-10-23 18:02:00,
2017-10-23 11:07:00,54.5,53.6,30.62,East,90,6.0,7.0,97,0.00,,,0.00,meteohub,2017-10-23 18:07:00,
2017-10-23 11:12:00,54.9,54.0,30.61,ENE,66,6.0,8.0,97,0.00,,,0.00,meteohub,2017-10-23 18:12:00,
2017-10-23 11:17:00,55.4,54.5,30.61,ESE,102,2.0,9.0,97,0.00,,,0.00,meteohub,2017-10-23 18:17:00,
2017-10-23 11:22:00,55.8,54.9,30.61,ENE,75,1.0,9.0,97,0.00,,,0.00,meteohub,2017-10-23 18:22:00,
2017-10-23 11:27:00,55.8,54.7,30.61,ESE,107,3.0,9.0,96,0.00,,,0.00,meteohub,2017-10-23 18:27:00,
2017-10-23 11:32:00,55.6,54.5,30.61,ESE,106,2.0,7.0,96,0.00,,,0.00,meteohub,2017-10-23 18:32:00,
2017-10-23 11:37:00,55.9,54.9,30.61,ENE,76,3.0,7.0,96,0.00,,,0.00,meteohub,2017-10-23 18:37:00,
2017-10-23 11:42:00,56.5,55.4,30.61,East,94,3.0,7.0,96,0.00,,,0.00,meteohub,2017-10-23 18:42:00,
2017-10-23 11:47:00,56.5,55.0,30.61,East,82,4.0,7.0,95,0.00,,,0.00,meteohub,2017-10-23 18:47:00,
2017-10-23 11:52:00,56.7,55.2,30.61,ESE,108,2.0,7.0,95,0.00,,,0.00,meteohub,2017-10-23 18:52:00,
2017-10-23 11:57:00,56.8,55.4,30.61,ESE,109,4.0,7.0,95,0.00,,,0.00,meteohub,2017-10-23 18:57:00,
2017-10-23 12:02:00,57.2,55.8,30.62,ESE,107,4.0,7.0,95,0.00,,,0.00,meteohub,2017-10-23 19:02:00,
2017-10-23 12:07:00,57.2,55.4,30.62,ESE,117,4.0,7.0,94,0.00,,,0.00,meteohub,2017-10-23 19:07:00,
2017-10-23 12:12:00,57.4,55.6,30.62,ESE,117,4.0,7.0,94,0.00,,,0.00,meteohub,2017-10-23 19:12:00,
2017-10-23 12:14:00,57.4,55.6,30.62,ESE,105,7.0,7.0,94,0.00,,,0.00,meteohub,2017-10-23 19:14:00,
2017-10-23 12:19:00,57.0,55.0,30.62,East,81,3.0,8.0,93,0.00,,,0.00,meteohub,2017-10-23 19:19:00,
2017-10-23 12:24:00,57.0,55.0,30.62,East,85,4.0,8.0,93,0.00,,,0.00,meteohub,2017-10-23 19:24:00,
2017-10-23 12:29:00,57.6,55.8,30.62,ESE,102,3.0,8.0,94,0.00,,,0.00,meteohub,2017-10-23 19:29:00,
2017-10-23 12:34:00,57.7,55.8,30.62,East,101,4.0,8.0,93,0.00,,,0.00,meteohub,2017-10-23 19:34:00,
2017-10-23 12:39:00,57.9,55.9,30.62,East,80,4.0,6.0,93,0.00,,,0.00,meteohub,2017-10-23 19:39:00,
2017-10-23 12:44:00,57.7,55.8,30.62,ESE,107,7.0,7.0,93,0.00,,,0.00,meteohub,2017-10-23 19:44:00,
2017-10-23 12:49:00,57.7,55.8,30.62,ESE,121,3.0,7.0,93,0.00,,,0.00,meteohub,2017-10-23 19:49:00,
2017-10-23 12:54:00,58.3,56.3,30.62,ESE,117,3.0,7.0,93,0.00,,,0.00,meteohub,2017-10-23 19:54:00,
2017-10-23 12:59:00,58.6,56.3,30.62,East,79,2.0,7.0,92,0.00,,,0.00,meteohub,2017-10-23 19:59:00,
2017-10-23 13:04:00,58.8,56.5,30.62,SSE,147,3.0,7.0,92,0.00,,,0.00,meteohub,2017-10-23 20:04:00,
2017-10-23 13:09:00,58.8,56.1,30.62,ESE,123,3.0,7.0,91,0.00,,,0.00,meteohub,2017-10-23 20:09:00,